George, South Africa

7:19 AM SAST on January 22, 2018 (GMT +0200)
George

Weather History for FAGG - June, 2013

Change the Weather History Date:

Wednesday, June 26, 2013

  Actual Average Record
Temperature  
Mean Temperature 54 °F -  
Max Temperature 64 °F 64 °F 80 °F (2000)
Min Temperature 45 °F 44 °F 36 °F (2017)
Degree Days  
Heating Degree Days 10    
Growing Degree Days 4 (Base 50)    
Moisture  
Dew Point 38 °F    
Average Humidity 53    
Maximum Humidity 72    
Minimum Humidity 27    
Precipitation  
Precipitation 0.12 in - - ()
Sea Level Pressure  
Sea Level Pressure 30.03 in    
Wind  
Wind Speed 9 mph ()    
Max Wind Speed 22 mph    
Max Gust Speed -    
Visibility 7.9 miles    
Events Rain    
Averages and records for this station are not official NWS values.
T = Trace of Precipitation, MM = Missing Value Source: Averaged Metar Reports

Daily Weather History Graph

Daily Weather History Graph

Search for Another Location

Airport or City:

Trip Planner

Search our weather history database for the weather conditions in past years. The results will help you decide how hot, cold, wet, or windy it might be!

Date:

Astronomy

Jun. 26, 2013 Rise Set
Actual Time 7:36 AM SAST 5:30 PM SAST
Civil Twilight 7:08 AM SAST 5:58 PM SAST
Nautical Twilight 6:37 AM SAST 6:29 PM SAST
Astronomical Twilight 6:06 AM SAST 6:59 PM SAST
Moon 9:16 PM SAST (6/26) 9:46 AM SAST (6/26)
Length of Visible Light 10h 49m
Length of Day
9h 53m
Waning Gibbous, 87% of the Moon is Illuminated
Jun 26
Waning Gibbous
Jun 30
Last Quarter
Jul 8
New
Jul 16
First Quarter
Jul 22
Full

Hourly Weather History & Observations

Time (SAST) Temp. Windchill Dew Point Humidity Pressure Visibility Wind Dir Wind Speed Gust Speed Precip Events Conditions
12:00 AM 51.8 °F - 37.4 °F 58% 29.95 in 6.2 mi WNW 8.1 mph - N/A   Scattered Clouds
1:00 AM 51.8 °F - 37.4 °F 58% 29.95 in - NNW 5.8 mph - N/A   Clear
2:00 AM 51 °F - 37 °F 48% 29.98 in 31 mi WNW 6.9 mph - -  
2:00 AM 51.8 °F - 37.4 °F 58% 29.95 in - WNW 8.1 mph - N/A   Clear
4:00 AM 50.0 °F - 37.4 °F 62% 29.98 in - Variable 8.1 mph - N/A   Clear
5:00 AM 49 °F - 38 °F 55% 29.99 in 12 mi WNW 6.9 mph - -  
5:00 AM 48.2 °F - 37.4 °F 66% 29.98 in - WNW 6.9 mph - N/A   Clear
6:00 AM 48.2 °F - 37.4 °F 66% 29.98 in - NW 6.9 mph - N/A   Clear
7:00 AM 46.4 °F 42.4 °F 37.4 °F 71% 30.01 in 6.2 mi WNW 8.1 mph - N/A   Partly Cloudy
8:00 AM 47 °F - 37 °F 59% 30.02 in 12 mi WNW 5.8 mph - -   Scattered Clouds
8:00 AM 48.2 °F - 37.4 °F 66% 30.01 in 6.2 mi WNW 5.8 mph - N/A   Partly Cloudy
9:00 AM 51.8 °F - 39.2 °F 62% 30.04 in 6.2 mi NW 6.9 mph - N/A   Partly Cloudy
10:00 AM 59.0 °F - 39.2 °F 48% 30.04 in 6.2 mi West 11.5 mph - N/A   Partly Cloudy
11:00 AM 62 °F - 38 °F 29% 30.06 in 12 mi WNW 16.1 mph - -   Scattered Clouds
11:00 AM 62.6 °F - 37.4 °F 39% 30.04 in 6.2 mi WNW 16.1 mph - N/A   Partly Cloudy
12:00 PM 62.6 °F - 35.6 °F 37% 30.04 in 6.2 mi West 19.6 mph - N/A   Partly Cloudy
1:00 PM 62.6 °F - 37.4 °F 39% 30.04 in 6.2 mi WNW 21.9 mph - N/A   Scattered Clouds
2:00 PM 63 °F - 37 °F 27% 30.04 in 12 mi West 19.6 mph - -   Partly Cloudy
2:00 PM 62.6 °F - 37.4 °F 39% 30.04 in 6.2 mi West 19.6 mph - N/A   Scattered Clouds
3:00 PM 62.6 °F - 37.4 °F 39% 30.01 in 6.2 mi West 17.3 mph - N/A   Scattered Clouds
4:00 PM 62.6 °F - 37.4 °F 39% 30.04 in 6.2 mi WSW 15.0 mph - N/A   Scattered Clouds
5:00 PM 60 °F - 39 °F 34% 30.07 in 12 mi WNW 9.2 mph - -   Partly Cloudy
6:00 PM 55.4 °F - 39.2 °F 54% 30.06 in 6.2 mi West 6.9 mph - N/A   Partly Cloudy
7:00 PM 51.8 °F - 39.2 °F 62% 30.09 in 6.2 mi NW 6.9 mph - N/A   Partly Cloudy
8:00 PM 51 °F - 39 °F 53% 30.12 in 12 mi NW 6.9 mph - -   Scattered Clouds
8:00 PM 51.8 °F - 39.2 °F 62% 30.09 in 6.2 mi NW 6.9 mph - N/A   Partly Cloudy
9:00 PM 50.0 °F - 41.0 °F 71% 30.12 in - WNW 8.1 mph - N/A   Clear
10:00 PM 53.6 °F - 42.8 °F 67% 30.12 in - WNW 11.5 mph - N/A   Clear
11:00 PM 53.6 °F - 44.6 °F 72% 30.15 in 6.2 mi WNW 16.1 mph - N/A Rain Light Rain